London, United Kingdom

1:22 AM BST on July 28, 2017 (GMT +0100)
Heathrow

Weather History for EGLL - December, 2013

Change the Weather History Date:

Thursday, December 5, 2013

  Actual Average Record
Temperature  
Mean Temperature 41 °F -  
Max Temperature 51 °F 45 °F 59 °F (2006)
Min Temperature 31 °F 36 °F 26 °F (1998)
Degree Days  
Heating Degree Days 24    
Moisture  
Dew Point 35 °F    
Average Humidity 77    
Maximum Humidity 100    
Minimum Humidity 40    
Precipitation  
Precipitation 0.02 in - - ()
Sea Level Pressure  
Sea Level Pressure 30.23 in    
Wind  
Wind Speed 12 mph ()    
Max Wind Speed 32 mph    
Max Gust Speed 45 mph    
Visibility 8.1 miles    
Events Rain    
Averages and records for this station are not official NWS values.
T = Trace of Precipitation, MM = Missing Value Source: Averaged Metar Reports

Daily Weather History Graph

Daily Weather History Graph

Search for Another Location

Airport or City:

Trip Planner

Search our weather history database for the weather conditions in past years. The results will help you decide how hot, cold, wet, or windy it might be!

Date:

Astronomy

Dec. 05, 2013 Rise Set
Actual Time 7:50 AM GMT 3:54 PM GMT
Civil Twilight 7:10 AM GMT 4:33 PM GMT
Nautical Twilight 6:28 AM GMT 5:16 PM GMT
Astronomical Twilight 5:47 AM GMT 5:56 PM GMT
Moon 9:49 AM GMT (12/5) 7:07 PM GMT (12/5)
Length of Visible Light 9h 22m
Length of Day
8h 03m
Waxing Crescent, 9% of the Moon is Illuminated
Dec 5
Waxing Crescent
Dec 9
First Quarter
Dec 17
Full
Dec 25
Last Quarter
Jan 1
New

Hourly Weather History & Observations

Time (GMT) Temp. Windchill Dew Point Humidity Pressure Visibility Wind Dir Wind Speed Gust Speed Precip Events Conditions
12:00 AM 36 °F - 32 °F 80% 30.50 in 14 mi West 8.1 mph - -  
12:20 AM 32.0 °F 24.8 °F 30.2 °F 93% 30.48 in - West 8.1 mph - N/A   Clear
12:50 AM 33.8 °F 27.0 °F 32.0 °F 93% 30.48 in - West 8.1 mph - N/A   Clear
1:20 AM 32.0 °F 25.6 °F 30.2 °F 93% 30.45 in 6.2 mi West 6.9 mph - N/A   Unknown
1:50 AM 33.8 °F 26.4 °F 32.0 °F 93% 30.45 in 6.2 mi West 9.2 mph - N/A   Unknown
2:20 AM 32.0 °F 24.8 °F 32.0 °F 100% 30.45 in 6.2 mi West 8.1 mph - N/A   Unknown
2:50 AM 33.8 °F 27.0 °F 32.0 °F 93% 30.42 in - West 8.1 mph - N/A   Clear
3:00 AM 32 °F - 30 °F 88% 30.44 in 16 mi West 8.1 mph - -  
3:20 AM 32.0 °F 25.6 °F 32.0 °F 100% 30.42 in - West 6.9 mph - N/A   Clear
3:50 AM 32.0 °F 26.4 °F 32.0 °F 100% 30.42 in - South 5.8 mph - N/A   Clear
4:20 AM 33.8 °F 29.6 °F 32.0 °F 93% 30.39 in - South 4.6 mph - N/A   Clear
4:50 AM 35.6 °F 28.6 °F 33.8 °F 93% 30.36 in - WSW 9.2 mph - N/A   Clear
5:20 AM 35.6 °F 28.6 °F 33.8 °F 93% 30.36 in - SW 9.2 mph - N/A   Clear
5:50 AM 35.6 °F 28.0 °F 33.8 °F 93% 30.33 in - SW 10.4 mph - N/A   Clear
6:00 AM 36 °F - 32 °F 81% 30.34 in 17 mi SSW 12.7 mph - -  
6:20 AM 35.6 °F 27.1 °F 33.8 °F 93% 30.30 in 6.2 mi SSW 12.7 mph - N/A   Partly Cloudy
6:50 AM 35.6 °F 26.2 °F 33.8 °F 93% 30.30 in 6.2 mi SW 15.0 mph - N/A   Partly Cloudy
7:20 AM 35.6 °F 26.6 °F 33.8 °F 93% 30.27 in 6.2 mi SW 13.8 mph - N/A   Partly Cloudy
7:50 AM 37.4 °F 28.2 °F 33.8 °F 87% 30.24 in - SW 16.1 mph - N/A   Clear
8:20 AM 39.2 °F 30.5 °F 35.6 °F 87% 30.24 in - SW 16.1 mph - N/A   Clear
8:50 AM 41.0 °F 32.2 °F 35.6 °F 81% 30.21 in - SW 18.4 mph - N/A   Clear
9:00 AM 41 °F - 34 °F 68% 30.22 in 25 mi SW 17.3 mph - -   Scattered Clouds
9:20 AM 42.8 °F 35.1 °F 35.6 °F 76% 30.21 in - SW 16.1 mph - N/A   Clear
9:50 AM 44.6 °F 36.9 °F 37.4 °F 76% 30.18 in - WSW 18.4 mph - N/A   Clear
10:20 AM 44.6 °F 36.6 °F 37.4 °F 76% 30.15 in 6.2 mi WSW 19.6 mph 32.2 mph N/A   Partly Cloudy
10:50 AM 44.6 °F 36.4 °F 37.4 °F 76% 30.15 in 6.2 mi WSW 20.7 mph - N/A   Scattered Clouds
11:20 AM 44.6 °F 35.5 °F 39.2 °F 81% 30.09 in 6.2 mi WSW 25.3 mph - N/A   Partly Cloudy
11:50 AM 46.4 °F 37.7 °F 39.2 °F 76% 30.09 in 6.2 mi WSW 26.5 mph 38.0 mph N/A   Partly Cloudy
12:00 PM 47 °F - 38 °F 62% 30.11 in 18 mi WSW 25.3 mph - -   Scattered Clouds
12:20 PM 48.2 °F - 41.0 °F 76% 30.06 in 6.2 mi WSW 24.2 mph 35.7 mph N/A   Scattered Clouds
12:50 PM 50.0 °F - 42.8 °F 76% 30.06 in 6.2 mi West 32.2 mph 44.9 mph N/A   Scattered Clouds
1:20 PM 50.0 °F - 42.8 °F 76% 30.04 in 6.2 mi West 28.8 mph 43.7 mph N/A   Mostly Cloudy
1:50 PM 50.0 °F - 42.8 °F 76% 30.04 in 6.2 mi West 26.5 mph - N/A   Mostly Cloudy
2:20 PM 50.0 °F - 42.8 °F 76% 30.04 in 6.2 mi West 26.5 mph 38.0 mph N/A   Mostly Cloudy
2:50 PM 50.0 °F - 42.8 °F 76% 30.04 in 6.2 mi West 21.9 mph - N/A   Mostly Cloudy
3:00 PM 50 °F - 42 °F 65% 30.05 in 18 mi West 21.9 mph - -   Scattered Clouds
3:20 PM 50.0 °F - 42.8 °F 76% 30.04 in 6.2 mi West 24.2 mph - N/A   Mostly Cloudy
3:50 PM 50.0 °F - 42.8 °F 76% 30.06 in 3.7 mi West 20.7 mph - N/A Rain Light Rain Showers
4:20 PM 48.2 °F - 44.6 °F 87% 30.12 in 6.2 mi NW 15.0 mph - N/A Rain Light Rain
4:50 PM 48.2 °F - 39.2 °F 71% 30.12 in 6.2 mi NW 15.0 mph - N/A   Mostly Cloudy
5:20 PM 48.2 °F - 33.8 °F 58% 30.15 in - WNW 11.5 mph - N/A   Clear
5:50 PM 46.4 °F 40.7 °F 30.2 °F 53% 30.15 in - NW 12.7 mph - N/A   Clear
6:00 PM 46 °F - 29 °F 40% 30.16 in 22 mi NW 15.0 mph - -   Mostly Cloudy
6:20 PM 46.4 °F 40.7 °F 30.2 °F 53% 30.15 in - NW 12.7 mph - N/A   Clear
6:50 PM 44.6 °F 39.7 °F 32.0 °F 61% 30.15 in - WNW 9.2 mph - N/A   Clear
7:20 PM 44.6 °F 39.2 °F 32.0 °F 61% 30.18 in - WNW 10.4 mph - N/A   Clear
7:50 PM 44.6 °F 39.7 °F 32.0 °F 61% 30.18 in - WNW 9.2 mph - N/A   Clear
8:20 PM 44.6 °F 39.2 °F 32.0 °F 61% 30.18 in - WNW 10.4 mph - N/A   Clear
8:50 PM 41.0 °F 34.3 °F 32.0 °F 70% 30.21 in - West 11.5 mph - N/A   Clear
9:00 PM 42 °F - 31 °F 53% 30.21 in 22 mi West 8.1 mph - -   Scattered Clouds
9:20 PM 42.8 °F 36.6 °F 33.8 °F 70% 30.21 in - WNW 11.5 mph - N/A   Clear
9:50 PM 42.8 °F 36.6 °F 33.8 °F 70% 30.21 in - West 11.5 mph - N/A   Clear
10:20 PM 44.6 °F 38.1 °F 33.8 °F 66% 30.21 in - WNW 13.8 mph - N/A   Clear
10:50 PM 42.8 °F 37.0 °F 33.8 °F 70% 30.24 in 6.2 mi WNW 10.4 mph 21.9 mph N/A   Partly Cloudy
11:20 PM 42.8 °F 37.0 °F 33.8 °F 70% 30.24 in - WNW 10.4 mph - N/A   Clear
11:50 PM 42.8 °F 38.6 °F 33.8 °F 70% 30.24 in - WNW 6.9 mph - N/A   Clear